Location: Westerlo
(51.0830°N, 4.9170°E)
Time: 05:58:35
(UTC+02:00)

ISS - Visible Passes

Search period start: 21 October 2018 00:00
Search period end: 30 October 2018 23:00
Orbit: 403 x 408 km, 51.6° (Epoch: 21 October)

Date Brightness Start Highest point End Pass type
(mag) Time Alt. Az. Time Alt. Az. Time Alt. Az.
28 Oct -1.0 05:58:08 10° S 06:00:18 17° SE 06:02:29 10° E visible
29 Oct -0.7 05:07:57 10° SE 05:08:31 10° SE 05:09:05 10° SE visible
29 Oct -2.7 06:41:12 10° SW 06:44:21 43° SSE 06:47:29 10° E visible
30 Oct -2.1 05:50:05 14° SSW 05:52:24 29° SSE 05:55:18 10° E visible
